Regional Weather Roundup
Issued by NWS Charleston, WV

Home | Current Version | Previous Version | Graphics & Text | Print | Product List | Glossary On
Versions: 1 2 3 4 5 6 7 8 9 10 11 12 13 14 15 16 17 18 19 20 21 22 23 24 25 26 27
000
ASUS41 KRLX 191910
RWRRLX
West Virginia Regional Weather Roundup
National Weather Service Charleston WV
300 PM EDT SAT AUG 19 2017

Note: "fair" indicates few or no clouds below 12,000 feet with no
significant weather and/or obstructions to visibility.

WVZ003-192000-
Northern Panhandle of West Virginia

CITY           SKY/WX    TMP DP  RH WIND       PRES   REMARKS
WHEELING       SUNNY     82  65  56 W10       29.92F
$$

WVZ009-192000-
Northwest West Virginia

CITY           SKY/WX    TMP DP  RH WIND       PRES   REMARKS
PARKERSBURG    MOSUNNY   83  66  56 W14       29.97F
$$

WVZ006-192000-
Western West Virginia

CITY           SKY/WX    TMP DP  RH WIND       PRES   REMARKS
HUNTINGTON     SUNNY     85  66  53 SW8       29.97F
$$

WVZ015-192000-
West Central West Virginia

CITY           SKY/WX    TMP DP  RH WIND       PRES   REMARKS
CHARLESTON     MOSUNNY   85  63  47 S12       29.98S
$$

WVZ022-031-192000-
North Central West Virginia

CITY           SKY/WX    TMP DP  RH WIND       PRES   REMARKS
CLARKSBURG     MOSUNNY   84  62  47 SW10      29.97S
MORGANTOWN     SUNNY     83  63  50 W8G16     29.96F
$$

WVZ025-035-042-045-192000-
Southern West Virginia

CITY           SKY/WX    TMP DP  RH WIND       PRES   REMARKS
BECKLEY        SUNNY     79  61  53 SW7       30.07S
LOGAN            N/A     82  66  57 CALM      30.02F
BLUEFIELD      SUNNY     77  59  53 VRB3      30.10F
LEWISBURG      SUNNY     80  60  51 W7        30.05F
$$

WVZ047-192000-
Northern Mountains of West Virginia

CITY           SKY/WX    TMP DP  RH WIND       PRES   REMARKS
ELKINS         SUNNY     82  58  43 W7        30.02F
$$

WVZ052-192000-
Eastern Panhandle of West Virginia

CITY           SKY/WX    TMP DP  RH WIND       PRES   REMARKS
MARTINSBURG    SUNNY     86  64  47 SW9       29.91F
PETERSBURG     SUNNY     87  62  44 NW3       29.95F
$$




USA.gov is the U.S. government's official web portal to all federal, state and local government web resources and services.